Regional Weather Roundup
Issued by NWS Grand Forks, ND

Home | Current Version | Previous Version | Text Only | Print | Product List | Glossary On
Versions: 1 2 3 4 5 6 7 8 9 10 11 12 13 14 15 16 17 18 19 20 21 22 23 24 25 26 27 28 29 30 31 32 33 34 35 36 37 38 39 40 41 42 43 44 45 46 47 48 49 50
000
ASUS43 KFGF 310331
RWRFGF
PRAIRIE TO PINES  WEATHER ROUNDUP
NATIONAL WEATHER SERVICE EASTERN NORTH DAKOTA/GRAND FORKS ND
1000 PM CDT THU JUL 30 2015

 **SATELLITE DATA USED TO AUGMENT SKY COVER AT AUTOMATED STATIONS**
 *****  WEATHER ACROSS EASTERN NORTH DAKOTA  *****

CITY           SKY/WX    TMP DP  RH WIND       PRES   REMARKS
GRAND FORKS    CLEAR     66  51  58 W8        30.01R
GRAND FRKS AFB CLEAR     67  51  55 NW8       30.03R
GRAND FRKS NWS   N/A     68 N/A N/A NW7         N/A
DEVILS LAKE    CLEAR     63  50  63 NW6       30.07R
FARGO          CLEAR     68  57  68 W10       30.03R
WAHPETON ARPT  CLEAR     61  54  77 W7        30.05R
$$

 ***** WEATHER ACROSS CENTRAL AND WESTERN NORTH DAKOTA  *****

CITY           SKY/WX    TMP DP  RH WIND       PRES   REMARKS
BISMARCK       CLEAR     71  52  50 NE3       30.13R
MINOT          CLEAR     63  47  55 NW9       30.11S
JAMESTOWN      CLEAR     67  54  63 NW10      30.09R
MINOT AFB      CLEAR     59  53  80 W8        30.11R
GARRISON         N/A     64  55  72 N5        30.13R
WILLISTON      CLEAR     71  47  42 N7        30.14R
DICKINSON      CLEAR     68  47  46 NE5       30.16R
HETTINGER      CLEAR     63  49  60 NE7       30.18R
$$

 *****  OTHER AIRPORT OBSERVATIONS IN OUR AREA  *****

CITY           SKY/WX    TMP DP  RH WIND       PRES   REMARKS
WALHALLA       FAIR      66  50  55 MISG      30.00S
GRAFTON AIRPOR FAIR      66  54  63 W10       30.01R
VALLEY CITY AR FAIR      66  55  68 NW9       30.09R
CANDO          FAIR      57  54  88 W7        30.08R
CAVALIER APRT  FAIR      64  52  63 W8        30.00R
GWINNER        FAIR      66  57  72 W9        30.09R
SHEYENNE NWR     N/A     65  57  76 W3        29.95S
ROLLA          FAIR      57  50  77 W8        30.09S
 ***** THE ABOVE OBSERVATIONS ARE NON NWS ARE NOT QUALITY
       CONTROLLED AND MAY MIS-REPORT RAIN FOR SNOW...
$$

  *****  WEATHER ACROSS NORTHERN MINNESOTA  *****

CITY           SKY/WX    TMP DP  RH WIND       PRES   REMARKS
FLAG ISLAND    MOCLDY    68  55  64 N14G21    29.91R
WARROAD        CLEAR     66  57  72 W10G17    29.94R
ROSEAU         PTCLDY    66  57  72 W6        29.95R
HALLOCK        CLEAR     63  54  72 W8        29.98R
THF RVR FALLS  CLEAR     66  50  55 W9        30.00R
BAUDETTE       PTCLDY    65  55  70 W7        29.92S
WASKISH        PTCLDY    72  59  64 W14G21    29.94R
CROOKSTON      CLEAR     63  54  72 NW7       30.02R
$$
  *****  WEATHER ACROSS CENTRAL AND WEST MINNESOTA  *****

CITY           SKY/WX    TMP DP  RH WIND       PRES   REMARKS
FOSSTON        PTCLDY    64  54  68 W8        30.02R
BEMIDJI        MOCLDY    69  55  62 W12       29.99R
PARK RAPIDS    CLEAR     66  53  63 W7        30.01R
ELBOW LAKE     FAIR      66  59  77 W5        30.05R
WADENA         CLEAR     64  54  68 W5        30.03R
DETROIT LAKES  CLEAR     70  54  56 W9        30.05R
MOORHEAD       CLEAR     68  55  64 NW10      30.05R
FERGUS FALLS   CLEAR     66  57  72 W3        30.04R
MORRIS MN      CLEAR     68  61  77 NW6       30.06R
STAPLES        CLEAR     64  54  68 W6        30.03R
$$
  *****  WEATHER ELSEWHERE ACROSS MINNESOTA  *****

CITY           SKY/WX    TMP DP  RH WIND       PRES   REMARKS
DULUTH         PTCLDY    66  53  63 W9        29.95R
INTRNTL FALLS  CLOUDY    64  56  75 W10G18    29.91R
ELY            MOCLDY    66  54  63 W7        29.90R
CLOQUET        CLEAR     70  52  52 W8        29.96S
WHEATON        CLEAR     66  57  72 W6        30.08R
BRAINERD       CLEAR     71  54  54 W6        30.01R
HIBBING        CLEAR     66  54  65 SW5       29.94R
ALEXANDRIA     CLEAR     69  58  67 W7        30.06R
SAINT CLOUD    CLEAR     68  59  73 W6        30.02R
MINNEAPOLIS    PTCLDY    76  60  57 W5        30.01R
$$

  *****  WEATHER ACROSS SOUTH DAKOTA  *****

CITY           SKY/WX    TMP DP  RH WIND       PRES   REMARKS
SIOUX FALLS    PTCLDY    71  62  73 SW3       30.10R
BROOKINGS      MOCLDY    70  61  73 NW7       30.13R
WATERTOWN      CLEAR     72  58  61 NW7       30.11R
HURON          CLEAR     72  63  73 N3        30.09R
SISSETON         N/A     65  58  78 NW7       30.06R
ABERDEEN       CLEAR     65  55  70 CALM      30.10R
MITCHELL       CLEAR     73  62  68 CALM      30.09R
PIERRE         CLEAR     71  55  56 NE9       30.10R
MOBRIDGE       CLEAR     71  53  52 NE9       30.11R
RAPID CITY     CLEAR     66  56  70 CALM      30.19S
$$

  *****  SOME WEATHER IN NEARBY STATES *****

CITY           SKY/WX    TMP DP  RH WIND       PRES   REMARKS
GLASGOW MT     CLEAR     78  43  28 NW3       30.13S
GREAT FALLS MT CLEAR     75  41  29 E7        30.16F
CHEYENNE WY    CLEAR     69  41  36 E6        30.37R
SCOTTSBLUFF NE CLEAR     72  52  49 NE9       30.23R
OMAHA NE       PTCLDY    76  67  73 SE3       30.12R
DES MOINES IA  CLEAR     76  65  68 SW7       30.10R
DAVENPORT IA   CLEAR     70  67  90 W5        30.08R
CHICAGO IL     CLEAR     78  60  53 W10       30.01R
EAU CLAIRE WI  CLEAR     70  56  61 SW6       29.99R
LA CROSSE WI   CLEAR     77  59  53 W10       30.02R
$$

  *****  SOME NATIONAL WEATHER *****

CITY           SKY/WX    TMP DP  RH WIND       PRES   REMARKS
LA GUARDIA NY  MOCLDY    79  72  78 VRB3      29.83S
RALEIGH NC     PTCLDY    80  75  84 CALM      29.92S
ATLANTA GA     PTCLDY    80  72  76 NW7       29.98R
NEW ORLEANS LA CLOUDY    81  74  79 NE12      30.00R
OKLAHOMA CITY  MOCLDY    82  75  79 E9        30.13R
ALBUQUERQUE NM CLOUDY    74  58  57 SE12      30.32R
SALT LAKE CITY PTCLDY    83  37  19 NW3       30.19S
LOS ANGELES CA PTCLDY    70  66  87 W8        29.99R
BOISE ID       CLEAR     88  34  14 W3        30.11S
SEATTLE WA     CLEAR     87  42  20 N9        30.03S
$$

*** WEATHER ACROSS MANITOBA...SASKATCHEWAN AND ONTARIO ***
                ***ONTARIO***

CITY           SKY/WX    TMP DP  RH WIND       PRES   REMARKS
GERALDTON      PTCLDY    61  57  88 W10       29.71S
THUNDER BAY    PTCLDY    57  55  94 SW5       29.84R
SIOUX LOOKOUT  MOCLDY    61  55  82 W7        29.82R
TORONTO        PTCLDY    73  55  53 W9        29.86R
BIG TROUT LK   PTCLDY    61  54  77 NW13G22   29.61S
PICKLE LAKE    NOT AVBL
DRYDEN         CLOUDY    59  57  94 W10       29.86S
KENORA         MOCLDY    61  57  88 SW5       29.90S
$$
                *** MANITOBA***

CITY           SKY/WX    TMP DP  RH WIND       PRES   REMARKS
BRANDON        PTCLDY    57  52  82 NW6       30.04R
DAUPHIN        CLOUDY    61  57  88 W7        29.98S
ISLAND LAKE    PTCLDY    63  52  67 NW6       29.76R
PILOT MOUND      N/A     61  50  67 W6          N/A
THE PAS        MOCLDY    63  55  77 W7        29.91S
THOMPSON       MOCLDY    63  54  72 W6        29.79R
WINNIPEG       PTCLDY    61  55  82 W8        29.94R
LYNN LAKE      MOCLDY    64  50  59 W6        29.85R
CHURCHILL      MOCLDY    54  50  87 N14       29.68S
GILLAM         PTCLDY    63  55  77 NW9       29.71R
$$
                ***SASKATCHEWAN***

CITY           SKY/WX    TMP DP  RH WIND       PRES   REMARKS
ESTEVAN        PTCLDY    59  52  77 NW7       30.13S
KINDERSLEY     PTCLDY    64  46  52 N7        30.13S
LLOYDMINSTER   PTCLDY    59  48  67 W7        30.12R
PRINCE ALBERT  PTCLDY    63  50  63 NW8       30.03R
REGINA         PTCLDY    63  54  72 W5        30.11S
YORKTON        CLEAR     61  52  72 W8        30.04S
N. BATTLEFORD  CLEAR     64  46  52 NW9       30.11S
LA RONGE       PTCLDY    61  54  77 W6        30.00
SASKATOON      PTCLDY    59  50  72 NW7       30.10S
SWIFT CURRENT  CLEAR     68  48  49 NW5       30.14S
$$
NOTE: THESE ARE AUTOMATED STATIONS WITH LIMITED QUALITY CONTROL
      "FAIR" INDICATES FEW OR NO CLOUDS BELOW 12,000 FEET WITH NO
      SIGNIFICANT WEATHER AND/OR OBSTRUCTIONS TO VISIBILITY.
      SKY/WX - SKY CONDITION AND SIGNIFICANT WEATHER.
      TMP - AIR TEMPERATURE.    DP   - DEWPOINT TEMPERATURE.
      RH  - RELATIVE HUMIDITY.  PRES - PRESSURE.
      HX  - HEAT INDEX.         WCI  - WIND CHILL INDEX.
$


USA.gov is the U.S. government's official web portal to all federal, state and local government web resources and services.